,,Stat6,,Stat2,,Stat8,,Stat9,,Stat10,,Wind1,,Wind1,
time,status,PA1M_AVG,status,PR1M_SUM,status,RH1M_AVG,status,SR1M_AVG,status,TA1M_AVG,status,W1dAve1m,status,W1sAve1m,
2008-07-13, 00:00:00,VALID,916.469,VALID,0,VALID,100,VALID,-0.0169808,VALID,18.8209,VALID,275,VALID,0,
2008-07-13, 00:01:00,VALID,916.461,VALID,0,VALID,100,VALID,0,VALID,18.8211,VALID,275,VALID,0,
2008-07-13, 00:02:00,VALID,916.446,VALID,0,VALID,100,VALID,-0.0169808,VALID,18.8081,VALID,275,VALID,0,
2008-07-13, 00:03:00,VALID,916.42,VALID,0,VALID,100,VALID,0,VALID,18.7879,VALID,275,VALID,0,
2008-07-13, 00:04:00,VALID,916.407,VALID,0,VALID,100,VALID,0,VALID,18.7954,VALID,300,VALID,0,
2008-07-13, 00:05:00,VALID,916.387,VALID,0,VALID,100,VALID,0,VALID,18.7402,VALID,80,VALID,0,
2008-07-13, 00:06:00,VALID,916.377,VALID,0,VALID,100,VALID,0.0169808,VALID,18.6851,VALID,80,VALID,0,
2008-07-13, 00:07:00,VALID,916.376,VALID,0,VALID,100,VALID,0.0339617,VALID,18.6424,VALID,85,VALID,0,
2008-07-13, 00:08:00,VALID,916.357,VALID,0,VALID,100,VALID,-0.0169808,VALID,18.636,VALID,103,VALID,0,
2008-07-13, 00:09:00,VALID,916.364,VALID,0,VALID,100,VALID,0.0169808,VALID,18.6554,VALID,106,VALID,0,
2008-07-13, 00:10:00,VALID,916.34,VALID,0,VALID,100,VALID,-0.0169808,VALID,18.6754,VALID,106,VALID,0,
2008-07-13, 00:11:00,VALID,916.331,VALID,0,VALID,100,VALID,-0.0849042,VALID,18.6983,VALID,106,VALID,0,
2008-07-13, 00:12:00,VALID,916.325,VALID,0,VALID,100,VALID,-0.0679233,VALID,18.7053,VALID,106,VALID,0,
2008-07-13, 00:13:00,VALID,916.295,VALID,0,VALID,100,VALID,-0.0679233,VALID,18.6823,VALID,104,VALID,0,
2008-07-13, 00:14:00,VALID,916.285,VALID,0,VALID,100,VALID,-0.118866,VALID,18.6015,VALID,94,VALID,0.152344,
2008-07-13, 00:15:00,VALID,916.269,VALID,0,VALID,100,VALID,-0.118866,VALID,18.5468,VALID,79,VALID,0,
2008-07-13, 00:16:00,VALID,916.254,VALID,0,VALID,100,VALID,-0.118866,VALID,18.5044,VALID,75,VALID,0,
2008-07-13, 00:17:00,VALID,916.246,VALID,0,VALID,100,VALID,-0.101885,VALID,18.4655,VALID,75,VALID,0,
2008-07-13, 00:18:00,VALID,916.248,VALID,0,VALID,100,VALID,-0.118866,VALID,18.4298,VALID,75,VALID,0,
2008-07-13, 00:19:00,VALID,916.232,VALID,0,VALID,100,VALID,-0.0849042,VALID,18.4328,VALID,75,VALID,0,
2008-07-13, 00:20:00,VALID,916.258,VALID,0,VALID,100,VALID,-0.101885,VALID,18.4166,VALID,75,VALID,0,
2008-07-13, 00:21:00,VALID,916.254,VALID,0,VALID,100,VALID,-0.0849042,VALID,18.4003,VALID,75,VALID,0,
2008-07-13, 00:22:00,VALID,916.249,VALID,0,VALID,100,VALID,-0.101885,VALID,18.3454,VALID,75,VALID,0,
2008-07-13, 00:23:00,VALID,916.264,VALID,0,VALID,100,VALID,-0.101885,VALID,18.3155,VALID,76,VALID,0,
2008-07-13, 00:24:00,VALID,916.288,VALID,0,VALID,100,VALID,-0.0849042,VALID,18.303,VALID,76,VALID,0,
2008-07-13, 00:25:00,VALID,916.29,VALID,0,VALID,100,VALID,-0.101885,VALID,18.2998,VALID,83,VALID,0,
2008-07-13, 00:26:00,VALID,916.313,VALID,0,VALID,100,VALID,-0.0679233,VALID,18.3294,VALID,87,VALID,0,
2008-07-13, 00:27:00,VALID,916.333,VALID,0,VALID,100,VALID,-0.101885,VALID,18.31,VALID,98,VALID,0,
2008-07-13, 00:28:00,VALID,916.34,VALID,0,VALID,100,VALID,-0.0509425,VALID,18.2868,VALID,99,VALID,0,
2008-07-13, 00:29:00,VALID,916.351,VALID,0,VALID,100,VALID,-0.101885,VALID,18.2474,VALID,104,VALID,0,
2008-07-13, 00:30:00,VALID,916.353,VALID,0,VALID,100,VALID,-0.0849042,VALID,18.2416,VALID,115,VALID,0,
2008-07-13, 00:31:00,VALID,916.343,VALID,0,VALID,100,VALID,-0.101885,VALID,18.2317,VALID,116,VALID,0,
2008-07-13, 00:32:00,VALID,916.339,VALID,0,VALID,100,VALID,-0.0679233,VALID,18.2414,VALID,116,VALID,0,
2008-07-13, 00:33:00,VALID,916.331,VALID,0,VALID,100,VALID,-0.118866,VALID,18.1928,VALID,116,VALID,0,
2008-07-13, 00:34:00,VALID,916.333,VALID,0,VALID,100,VALID,-0.101885,VALID,18.1668,VALID,116,VALID,0,
2008-07-13, 00:35:00,VALID,916.349,VALID,0,VALID,100,VALID,-0.0849042,VALID,18.1701,VALID,116,VALID,0.00416667,
2008-07-13, 00:36:00,VALID,916.35,VALID,0,VALID,100,VALID,-0.118866,VALID,18.1536,VALID,116,VALID,0.0219494,
2008-07-13, 00:37:00,VALID,916.347,VALID,0,VALID,100,VALID,-0.0679233,VALID,18.1798,VALID,116,VALID,0,
2008-07-13, 00:38:00,VALID,916.354,VALID,0,VALID,100,VALID,-0.0849042,VALID,18.1796,VALID,116,VALID,0,
2008-07-13, 00:39:00,VALID,916.348,VALID,0,VALID,100,VALID,-0.0679233,VALID,18.1341,VALID,116,VALID,0,
2008-07-13, 00:40:00,VALID,916.35,VALID,0,VALID,100,VALID,-0.0679233,VALID,18.1147,VALID,116,VALID,0,
2008-07-13, 00:41:00,VALID,916.331,VALID,0,VALID,100,VALID,-0.101885,VALID,18.1216,VALID,116,VALID,0,
2008-07-13, 00:42:00,VALID,916.307,VALID,0,VALID,100,VALID,-0.118866,VALID,18.1117,VALID,116,VALID,0,
2008-07-13, 00:43:00,VALID,916.304,VALID,0,VALID,100,VALID,-0.101885,VALID,18.1182,VALID,116,VALID,0,
2008-07-13, 00:44:00,VALID,916.275,VALID,0,VALID,100,VALID,-0.0679233,VALID,18.1246,VALID,116,VALID,0,
2008-07-13, 00:45:00,VALID,916.269,VALID,0,VALID,100,VALID,-0.0849042,VALID,18.108,VALID,116,VALID,0,
2008-07-13, 00:46:00,VALID,916.256,VALID,0,VALID,100,VALID,-0.118866,VALID,18.1216,VALID,116,VALID,0,
2008-07-13, 00:47:00,VALID,916.254,VALID,0,VALID,100,VALID,-0.0849042,VALID,18.079,VALID,116,VALID,0,
2008-07-13, 00:48:00,VALID,916.255,VALID,0,VALID,100,VALID,-0.118866,VALID,18.0213,VALID,116,VALID,0,
2008-07-13, 00:49:00,VALID,916.265,VALID,0,VALID,100,VALID,-0.101885,VALID,17.9595,VALID,116,VALID,0,
2008-07-13, 00:50:00,VALID,916.259,VALID,0,VALID,100,VALID,-0.101885,VALID,17.953,VALID,116,VALID,0,
2008-07-13, 00:51:00,VALID,916.258,VALID,0,VALID,100,VALID,-0.118866,VALID,17.9824,VALID,116,VALID,0,
2008-07-13, 00:52:00,VALID,916.26,VALID,0,VALID,100,VALID,-0.101885,VALID,18.0111,VALID,116,VALID,0,
2008-07-13, 00:53:00,VALID,916.256,VALID,0,VALID,100,VALID,-0.101885,VALID,18.0243,VALID,116,VALID,0,
2008-07-13, 00:54:00,VALID,916.254,VALID,0,VALID,100,VALID,-0.101885,VALID,18.0012,VALID,116,VALID,0,
2008-07-13, 00:55:00,VALID,916.254,VALID,0,VALID,100,VALID,-0.0849042,VALID,17.9428,VALID,116,VALID,0,
2008-07-13, 00:56:00,VALID,916.244,VALID,0,VALID,100,VALID,-0.0849042,VALID,17.8745,VALID,116,VALID,0,
2008-07-13, 00:57:00,VALID,916.242,VALID,0,VALID,100,VALID,-0.101885,VALID,17.826,VALID,116,VALID,0,
2008-07-13, 00:58:00,VALID,916.208,VALID,0,VALID,100,VALID,-0.135847,VALID,17.7744,VALID,100,VALID,0.157031,
2008-07-13, 00:59:00,VALID,916.202,VALID,0,VALID,100,VALID,-0.101885,VALID,17.836,VALID,44,VALID,0.718071,
2008-07-13, 01:00:00,VALID,916.172,VALID,0,VALID,100,VALID,-0.101885,VALID,17.9041,VALID,48,VALID,0.492773,
2008-07-13, 01:01:00,VALID,916.152,VALID,0,VALID,100,VALID,-0.101885,VALID,17.9653,VALID,56,VALID,0,
2008-07-13, 01:02:00,VALID,916.119,VALID,0,VALID,100,VALID,-0.135847,VALID,18.0438,VALID,59,VALID,0,
2008-07-13, 01:03:00,VALID,916.079,VALID,0,VALID,100,VALID,-0.118866,VALID,18.0528,VALID,68,VALID,0,
2008-07-13, 01:04:00,VALID,916.053,VALID,0,VALID,100,VALID,-0.152827,VALID,18.0559,VALID,68,VALID,0,
2008-07-13, 01:05:00,VALID,916.02,VALID,0,VALID,100,VALID,-0.135847,VALID,18.0593,VALID,80,VALID,0,
2008-07-13, 01:06:00,VALID,916.012,VALID,0,VALID,100,VALID,-0.135847,VALID,18.0883,VALID,87,VALID,0,
2008-07-13, 01:07:00,VALID,915.986,VALID,0,VALID,100,VALID,-0.0849042,VALID,18.0723,VALID,88,VALID,0,
2008-07-13, 01:08:00,VALID,915.964,VALID,0,VALID,100,VALID,-0.0849042,VALID,18.0691,VALID,89,VALID,0,
2008-07-13, 01:09:00,VALID,915.955,VALID,0,VALID,100,VALID,-0.118866,VALID,18.0987,VALID,78,VALID,0,
2008-07-13, 01:10:00,VALID,915.94,VALID,0,VALID,100,VALID,-0.101885,VALID,18.0857,VALID,73,VALID,0,
2008-07-13, 01:11:00,VALID,915.932,VALID,0,VALID,100,VALID,-0.135847,VALID,18.0528,VALID,73,VALID,0,
2008-07-13, 01:12:00,VALID,915.927,VALID,0,VALID,100,VALID,-0.0849042,VALID,18.0009,VALID,73,VALID,0,
2008-07-13, 01:13:00,VALID,915.908,VALID,0,VALID,100,VALID,-0.118866,VALID,17.975,VALID,73,VALID,0,
2008-07-13, 01:14:00,VALID,915.906,VALID,0,VALID,100,VALID,-0.101885,VALID,17.9815,VALID,73,VALID,0,
2008-07-13, 01:15:00,VALID,915.896,VALID,0,VALID,100,VALID,-0.0849042,VALID,18.0007,VALID,73,VALID,0,
2008-07-13, 01:16:00,VALID,915.88,VALID,0,VALID,100,VALID,-0.101885,VALID,18.0301,VALID,73,VALID,0,
2008-07-13, 01:17:00,VALID,915.873,VALID,0,VALID,100,VALID,-0.152827,VALID,18.0429,VALID,73,VALID,0,
2008-07-13, 01:18:00,VALID,915.858,VALID,0,VALID,100,VALID,-0.118866,VALID,18.0366,VALID,73,VALID,0,
2008-07-13, 01:19:00,VALID,915.85,VALID,0,VALID,100,VALID,-0.0849042,VALID,18.0336,VALID,73,VALID,0,
2008-07-13, 01:20:00,VALID,915.826,VALID,0,VALID,100,VALID,-0.118866,VALID,18.0663,VALID,73,VALID,0,
2008-07-13, 01:21:00,VALID,915.821,VALID,0,VALID,100,VALID,-0.0849042,VALID,18.0788,VALID,73,VALID,0,
2008-07-13, 01:22:00,VALID,915.804,VALID,0,VALID,100,VALID,-0.118866,VALID,18.0728,VALID,76,VALID,0,
2008-07-13, 01:23:00,VALID,915.797,VALID,0,VALID,100,VALID,-0.101885,VALID,18.0146,VALID,96,VALID,0,
2008-07-13, 01:24:00,VALID,915.781,VALID,0,VALID,100,VALID,-0.135847,VALID,17.9655,VALID,100,VALID,0,
2008-07-13, 01:25:00,VALID,915.774,VALID,0,VALID,100,VALID,-0.101885,VALID,17.9463,VALID,100,VALID,0,
2008-07-13, 01:26:00,VALID,915.772,VALID,0,VALID,100,VALID,-0.118866,VALID,17.9328,VALID,100,VALID,0,
2008-07-13, 01:27:00,VALID,915.773,VALID,0,VALID,100,VALID,-0.101885,VALID,17.9525,VALID,100,VALID,0,
2008-07-13, 01:28:00,VALID,915.788,VALID,0,VALID,100,VALID,-0.118866,VALID,17.9493,VALID,100,VALID,0,
2008-07-13, 01:29:00,VALID,915.78,VALID,0,VALID,100,VALID,-0.101885,VALID,17.9296,VALID,100,VALID,0,
2008-07-13, 01:30:00,VALID,915.781,VALID,0,VALID,100,VALID,-0.101885,VALID,17.9076,VALID,100,VALID,0,
2008-07-13, 01:31:00,VALID,915.798,VALID,0,VALID,100,VALID,-0.118866,VALID,17.8582,VALID,100,VALID,0,
2008-07-13, 01:32:00,VALID,915.792,VALID,0,VALID,100,VALID,-0.135847,VALID,17.8323,VALID,100,VALID,0,
2008-07-13, 01:33:00,VALID,915.791,VALID,0,VALID,100,VALID,-0.0849042,VALID,17.8392,VALID,100,VALID,0,
2008-07-13, 01:34:00,VALID,915.778,VALID,0,VALID,100,VALID,-0.101885,VALID,17.8098,VALID,100,VALID,0,
2008-07-13, 01:35:00,VALID,915.775,VALID,0,VALID,100,VALID,-0.135847,VALID,17.7156,VALID,100,VALID,0,
2008-07-13, 01:36:00,VALID,915.773,VALID,0,VALID,100,VALID,-0.101885,VALID,17.6643,VALID,100,VALID,0,
2008-07-13, 01:37:00,VALID,915.752,VALID,0,VALID,100,VALID,-0.135847,VALID,17.7355,VALID,100,VALID,0,
2008-07-13, 01:38:00,VALID,915.756,VALID,0,VALID,100,VALID,-0.135847,VALID,17.8745,VALID,100,VALID,0,
2008-07-13, 01:39:00,VALID,915.742,VALID,0,VALID,100,VALID,-0.0849042,VALID,17.9718,VALID,100,VALID,0,
2008-07-13, 01:40:00,VALID,915.738,VALID,0,VALID,100,VALID,-0.0849042,VALID,18.0658,VALID,100,VALID,0,
2008-07-13, 01:41:00,VALID,915.738,VALID,0,VALID,100,VALID,-0.118866,VALID,18.0855,VALID,100,VALID,0,
2008-07-13, 01:42:00,VALID,915.719,VALID,0,VALID,100,VALID,-0.101885,VALID,18.082,VALID,100,VALID,0,
2008-07-13, 01:43:00,VALID,915.718,VALID,0,VALID,100,VALID,-0.118866,VALID,18.0111,VALID,103,VALID,0,
2008-07-13, 01:44:00,VALID,915.708,VALID,0,VALID,100,VALID,-0.101885,VALID,17.9356,VALID,106,VALID,0.00985054,
2008-07-13, 01:45:00,VALID,915.719,VALID,0,VALID,100,VALID,-0.101885,VALID,17.9361,VALID,106,VALID,0.149554,
2008-07-13, 01:46:00,VALID,915.716,VALID,0,VALID,100,VALID,-0.118866,VALID,17.9817,VALID,106,VALID,0,
2008-07-13, 01:47:00,VALID,915.708,VALID,0,VALID,100,VALID,-0.0849042,VALID,18.007,VALID,111,VALID,0,
2008-07-13, 01:48:00,VALID,915.69,VALID,0,VALID,100,VALID,-0.118866,VALID,18.0169,VALID,122,VALID,0,
2008-07-13, 01:49:00,VALID,915.663,VALID,0,VALID,100,VALID,-0.135847,VALID,18.0209,VALID,125,VALID,0,
2008-07-13, 01:50:00,VALID,915.654,VALID,0,VALID,100,VALID,-0.0849042,VALID,18.0077,VALID,142,VALID,0.216518,
2008-07-13, 01:51:00,VALID,915.633,VALID,0,VALID,100,VALID,-0.118866,VALID,18.0139,VALID,156,VALID,0.122997,
2008-07-13, 01:52:00,VALID,915.63,VALID,0,VALID,100,VALID,-0.118866,VALID,18.0366,VALID,159,VALID,0.781641,
2008-07-13, 01:53:00,VALID,915.611,VALID,0,VALID,100,VALID,-0.118866,VALID,18.0464,VALID,160,VALID,0.321911,
2008-07-13, 01:54:00,VALID,915.602,VALID,0,VALID,100,VALID,-0.152827,VALID,18.0626,VALID,159,VALID,0,
2008-07-13, 01:55:00,VALID,915.592,VALID,0,VALID,100,VALID,-0.152827,VALID,18.1022,VALID,158,VALID,0,
2008-07-13, 01:56:00,VALID,915.576,VALID,0,VALID,100,VALID,-0.0339617,VALID,18.1006,VALID,150,VALID,0,
2008-07-13, 01:57:00,VALID,915.556,VALID,0,VALID,100,VALID,-0.0339617,VALID,18.1038,VALID,142,VALID,0.431734,
2008-07-13, 01:58:00,VALID,915.55,VALID,0,VALID,100,VALID,0,VALID,18.1098,VALID,132,VALID,0.707775,
2008-07-13, 01:59:00,VALID,915.537,VALID,0,VALID,100,VALID,0,VALID,18.1098,VALID,125,VALID,0.109193,
2008-07-13, 02:00:00,VALID,915.52,VALID,0,VALID,100,VALID,-0.0339617,VALID,18.1133,VALID,116,VALID,0.696429,
2008-07-13, 02:01:00,VALID,915.516,VALID,0,VALID,100,VALID,-0.0339617,VALID,18.0911,VALID,109,VALID,0.73331,
2008-07-13, 02:02:00,VALID,915.497,VALID,0,VALID,100,VALID,0,VALID,18.0452,VALID,103,VALID,0.818859,
2008-07-13, 02:03:00,VALID,915.491,VALID,0,VALID,100,VALID,0,VALID,17.9864,VALID,99,VALID,0.745117,
2008-07-13, 02:04:00,VALID,915.493,VALID,0,VALID,100,VALID,-0.0339617,VALID,17.9704,VALID,98,VALID,0.50465,
2008-07-13, 02:05:00,VALID,915.487,VALID,0,VALID,100,VALID,-0.0339617,VALID,17.9704,VALID,98,VALID,0.38058,
2008-07-13, 02:06:00,VALID,915.485,VALID,0,VALID,100,VALID,-0.0339617,VALID,17.9903,VALID,98,VALID,0.177951,
2008-07-13, 02:07:00,VALID,915.5,VALID,0,VALID,100,VALID,-0.0339617,VALID,17.9931,VALID,98,VALID,0.0580078,
2008-07-13, 02:08:00,VALID,915.506,VALID,0,VALID,100,VALID,-0.0169808,VALID,17.9641,VALID,98,VALID,0,
2008-07-13, 02:09:00,VALID,915.512,VALID,0,VALID,100,VALID,-0.0679233,VALID,17.9509,VALID,116,VALID,0.335938,
2008-07-13, 02:10:00,VALID,915.524,VALID,0,VALID,100,VALID,-0.0509425,VALID,17.9352,VALID,156,VALID,0.819097,
2008-07-13, 02:11:00,VALID,915.509,VALID,0,VALID,100,VALID,-0.101885,VALID,17.9,VALID,151,VALID,1.06269,
2008-07-13, 02:12:00,VALID,915.499,VALID,0,VALID,100,VALID,-0.135847,VALID,17.9592,VALID,147,VALID,0.487909,
2008-07-13, 02:13:00,VALID,915.491,VALID,0,VALID,100,VALID,-0.135847,VALID,17.9947,VALID,143,VALID,0.610305,
2008-07-13, 02:14:00,VALID,915.471,VALID,0,VALID,100,VALID,-0.135847,VALID,18.0343,VALID,137,VALID,0.0644097,
2008-07-13, 02:15:00,VALID,915.452,VALID,0,VALID,100,VALID,-0.135847,VALID,18.047,VALID,131,VALID,0,
2008-07-13, 02:16:00,VALID,915.44,VALID,0,VALID,100,VALID,-0.135847,VALID,18.047,VALID,131,VALID,0,
2008-07-13, 02:17:00,VALID,915.427,VALID,0,VALID,100,VALID,-0.101885,VALID,18.0334,VALID,127,VALID,0,
2008-07-13, 02:18:00,VALID,915.417,VALID,0,VALID,100,VALID,-0.118866,VALID,18.0304,VALID,129,VALID,0,
2008-07-13, 02:19:00,VALID,915.426,VALID,0,VALID,100,VALID,-0.101885,VALID,18.0077,VALID,126,VALID,0,
2008-07-13, 02:20:00,VALID,915.426,VALID,0,VALID,100,VALID,-0.118866,VALID,17.9815,VALID,121,VALID,0,
2008-07-13, 02:21:00,VALID,915.419,VALID,0,VALID,100,VALID,-0.101885,VALID,17.9685,VALID,121,VALID,0,
2008-07-13, 02:22:00,VALID,915.427,VALID,0,VALID,100,VALID,-0.118866,VALID,17.959,VALID,121,VALID,0,
2008-07-13, 02:23:00,VALID,915.433,VALID,0,VALID,100,VALID,-0.101885,VALID,17.9331,VALID,126,VALID,0,
2008-07-13, 02:24:00,VALID,915.444,VALID,0,VALID,100,VALID,-0.118866,VALID,17.9071,VALID,128,VALID,0,
2008-07-13, 02:25:00,VALID,915.432,VALID,0,VALID,100,VALID,-0.152827,VALID,17.8907,VALID,128,VALID,0,
2008-07-13, 02:26:00,VALID,915.422,VALID,0,VALID,100,VALID,-0.0339617,VALID,17.9027,VALID,135,VALID,0.0880335,
2008-07-13, 02:27:00,VALID,915.42,VALID,0,VALID,100,VALID,-0.0169808,VALID,17.9218,VALID,131,VALID,1.11679,
2008-07-13, 02:28:00,VALID,915.418,VALID,0,VALID,100,VALID,-0.0169808,VALID,17.9347,VALID,135,VALID,0.871094,
2008-07-13, 02:29:00,VALID,915.415,VALID,0,VALID,100,VALID,0,VALID,17.9542,VALID,143,VALID,1.14375,
2008-07-13, 02:30:00,VALID,915.396,VALID,0,VALID,100,VALID,-0.0169808,VALID,17.9771,VALID,138,VALID,0.895275,
2008-07-13, 02:31:00,VALID,915.382,VALID,0,VALID,100,VALID,0,VALID,17.9933,VALID,140,VALID,0.922965,
2008-07-13, 02:32:00,VALID,915.376,VALID,0,VALID,100,VALID,-0.0339617,VALID,18.0063,VALID,152,VALID,0.952939,
2008-07-13, 02:33:00,VALID,915.374,VALID,0,VALID,100,VALID,-0.0169808,VALID,18.0223,VALID,143,VALID,0.975419,
2008-07-13, 02:34:00,VALID,915.36,VALID,0,VALID,100,VALID,-0.0169808,VALID,18.032,VALID,145,VALID,1.05301,
2008-07-13, 02:35:00,VALID,915.352,VALID,0,VALID,100,VALID,0,VALID,18.0552,VALID,135,VALID,1.07853,
2008-07-13, 02:36:00,VALID,915.346,VALID,0,VALID,100,VALID,-0.0169808,VALID,18.058,VALID,134,VALID,0.388421,
2008-07-13, 02:37:00,VALID,915.337,VALID,0,VALID,100,VALID,-0.0339617,VALID,18.0353,VALID,117,VALID,0.00121528,
2008-07-13, 02:38:00,VALID,915.335,VALID,0,VALID,100,VALID,-0.0509425,VALID,18.0093,VALID,98,VALID,0,
2008-07-13, 02:39:00,VALID,915.328,VALID,0,VALID,100,VALID,-0.0169808,VALID,18.0028,VALID,107,VALID,0,
2008-07-13, 02:40:00,VALID,915.314,VALID,0,VALID,100,VALID,-0.0169808,VALID,18.0061,VALID,115,VALID,0,
2008-07-13, 02:41:00,VALID,915.302,VALID,0,VALID,100,VALID,-0.0169808,VALID,17.9806,VALID,112,VALID,0,
2008-07-13, 02:42:00,VALID,915.29,VALID,0,VALID,100,VALID,-0.0509425,VALID,17.9875,VALID,106,VALID,0,
2008-07-13, 02:43:00,VALID,915.285,VALID,0,VALID,100,VALID,-0.0509425,VALID,17.9808,VALID,106,VALID,0,
2008-07-13, 02:44:00,VALID,915.274,VALID,0,VALID,100,VALID,-0.0849042,VALID,17.9739,VALID,119,VALID,0,
2008-07-13, 02:45:00,VALID,915.269,VALID,0,VALID,100,VALID,-0.0509425,VALID,17.9748,VALID,123,VALID,0,
2008-07-13, 02:46:00,VALID,915.272,VALID,0,VALID,100,VALID,-0.0679233,VALID,17.9674,VALID,126,VALID,0.98125,
2008-07-13, 02:47:00,VALID,915.279,VALID,0,VALID,100,VALID,-0.0509425,VALID,17.9509,VALID,120,VALID,0.571243,
2008-07-13, 02:48:00,VALID,915.278,VALID,0,VALID,100,VALID,-0.0339617,VALID,17.9574,VALID,122,VALID,0.461301,
2008-07-13, 02:49:00,VALID,915.282,VALID,0,VALID,100,VALID,-0.0339617,VALID,17.9577,VALID,124,VALID,0.835574,
2008-07-13, 02:50:00,VALID,915.269,VALID,0,VALID,100,VALID,-0.0509425,VALID,17.9678,VALID,126,VALID,0.556362,
2008-07-13, 02:51:00,VALID,915.267,VALID,0,VALID,100,VALID,-0.0169808,VALID,17.9613,VALID,126,VALID,0.126674,
2008-07-13, 02:52:00,VALID,915.261,VALID,0,VALID,100,VALID,-0.0509425,VALID,17.9743,VALID,132,VALID,0,
2008-07-13, 02:53:00,VALID,915.231,VALID,0,VALID,100,VALID,0,VALID,17.9804,VALID,138,VALID,0,
2008-07-13, 02:54:00,VALID,915.211,VALID,0,VALID,100,VALID,-0.0169808,VALID,18,VALID,138,VALID,0,
2008-07-13, 02:55:00,VALID,915.201,VALID,0,VALID,100,VALID,-0.0169808,VALID,17.997,VALID,138,VALID,0,
2008-07-13, 02:56:00,VALID,915.197,VALID,0,VALID,100,VALID,-0.135847,VALID,17.9882,VALID,138,VALID,0,
2008-07-13, 02:57:00,VALID,915.197,VALID,0,VALID,100,VALID,-0.118866,VALID,17.9951,VALID,138,VALID,0,
2008-07-13, 02:58:00,VALID,915.185,VALID,0,VALID,100,VALID,-0.152827,VALID,17.9787,VALID,138,VALID,0,
2008-07-13, 02:59:00,VALID,915.2,VALID,0,VALID,100,VALID,-0.101885,VALID,17.966,VALID,138,VALID,0,
2008-07-13, 03:00:00,VALID,915.208,VALID,0,VALID,100,VALID,-0.135847,VALID,17.953,VALID,138,VALID,0,
2008-07-13, 03:01:00,VALID,915.196,VALID,0,VALID,100,VALID,-0.101885,VALID,17.9363,VALID,138,VALID,0,
2008-07-13, 03:02:00,VALID,915.194,VALID,0,VALID,100,VALID,-0.135847,VALID,17.9365,VALID,138,VALID,0,
2008-07-13, 03:03:00,VALID,915.169,VALID,0,VALID,100,VALID,-0.135847,VALID,17.9333,VALID,138,VALID,0.719097,
2008-07-13, 03:04:00,VALID,915.14,VALID,0,VALID,100,VALID,-0.135847,VALID,17.9467,VALID,138,VALID,0.292773,
2008-07-13, 03:05:00,VALID,915.108,VALID,0,VALID,100,VALID,-0.101885,VALID,17.9331,VALID,121,VALID,0,
2008-07-13, 03:06:00,VALID,915.091,VALID,0,VALID,100,VALID,-0.152827,VALID,17.9138,VALID,119,VALID,0,
2008-07-13, 03:07:00,VALID,915.084,VALID,0,VALID,100,VALID,-0.135847,VALID,17.8944,VALID,119,VALID,0,
2008-07-13, 03:08:00,VALID,915.073,VALID,0,VALID,100,VALID,-0.135847,VALID,17.9203,VALID,119,VALID,0,
2008-07-13, 03:09:00,VALID,915.072,VALID,0,VALID,100,VALID,-0.135847,VALID,17.9138,VALID,132,VALID,0,
2008-07-13, 03:10:00,VALID,915.045,VALID,0,VALID,100,VALID,-0.135847,VALID,17.9398,VALID,138,VALID,0,
2008-07-13, 03:11:00,VALID,915.045,VALID,0,VALID,100,VALID,-0.0509425,VALID,17.9676,VALID,138,VALID,0,
2008-07-13, 03:12:00,VALID,915.023,VALID,0,VALID,100,VALID,-0.0169808,VALID,18.0068,VALID,138,VALID,0,
2008-07-13, 03:13:00,VALID,914.974,VALID,0,VALID,100,VALID,-0.0339617,VALID,17.984,VALID,138,VALID,0,
2008-07-13, 03:14:00,VALID,914.969,VALID,0,VALID,100,VALID,-0.0339617,VALID,17.9414,VALID,138,VALID,0,
2008-07-13, 03:15:00,VALID,914.949,VALID,0,VALID,100,VALID,-0.0849042,VALID,17.9095,VALID,138,VALID,0,
2008-07-13, 03:16:00,VALID,914.938,VALID,0,VALID,100,VALID,-0.0169808,VALID,17.8833,VALID,138,VALID,0,
2008-07-13, 03:17:00,VALID,914.929,VALID,0,VALID,100,VALID,-0.0339617,VALID,17.8573,VALID,138,VALID,0,
2008-07-13, 03:18:00,VALID,914.918,VALID,0,VALID,100,VALID,-0.0509425,VALID,17.8638,VALID,138,VALID,0,
2008-07-13, 03:19:00,VALID,914.901,VALID,0,VALID,100,VALID,-0.0339617,VALID,17.8439,VALID,138,VALID,0,
2008-07-13, 03:20:00,VALID,914.887,VALID,0,VALID,100,VALID,0.0169808,VALID,17.8344,VALID,138,VALID,0,
2008-07-13, 03:21:00,VALID,914.88,VALID,0,VALID,100,VALID,-0.0169808,VALID,17.8279,VALID,138,VALID,0,
2008-07-13, 03:22:00,VALID,914.899,VALID,0,VALID,100,VALID,-0.0169808,VALID,17.7957,VALID,138,VALID,0,
2008-07-13, 03:23:00,VALID,914.908,VALID,0,VALID,100,VALID,-0.0509425,VALID,17.5847,VALID,138,VALID,0,
2008-07-13, 03:24:00,VALID,914.924,VALID,0,VALID,100,VALID,0.0169808,VALID,17.3643,VALID,124,VALID,0,
2008-07-13, 03:25:00,VALID,914.923,VALID,0,VALID,100,VALID,-0.0169808,VALID,17.2992,VALID,94,VALID,0,
2008-07-13, 03:26:00,VALID,914.923,VALID,0,VALID,100,VALID,-0.0509425,VALID,17.3578,VALID,86,VALID,0,
2008-07-13, 03:27:00,VALID,914.946,VALID,0,VALID,100,VALID,-0.0849042,VALID,17.4166,VALID,86,VALID,0,
2008-07-13, 03:28:00,VALID,914.95,VALID,0,VALID,100,VALID,-0.0169808,VALID,17.4942,VALID,86,VALID,0,
2008-07-13, 03:29:00,VALID,914.956,VALID,0,VALID,100,VALID,0,VALID,17.5718,VALID,86,VALID,0,
2008-07-13, 03:30:00,VALID,914.957,VALID,0,VALID,100,VALID,0,VALID,17.5586,VALID,86,VALID,0,
2008-07-13, 03:31:00,VALID,914.951,VALID,0,VALID,100,VALID,-0.0169808,VALID,17.5426,VALID,86,VALID,0,
2008-07-13, 03:32:00,VALID,914.931,VALID,0,VALID,100,VALID,-0.0339617,VALID,17.5197,VALID,86,VALID,0,
2008-07-13, 03:33:00,VALID,914.916,VALID,0,VALID,100,VALID,-0.0509425,VALID,17.5166,VALID,86,VALID,0,
2008-07-13, 03:34:00,VALID,914.913,VALID,0,VALID,100,VALID,0,VALID,17.4842,VALID,86,VALID,0,
2008-07-13, 03:35:00,VALID,914.886,VALID,0,VALID,100,VALID,-0.0339617,VALID,17.4066,VALID,86,VALID,0,
2008-07-13, 03:36:00,VALID,914.871,VALID,0,VALID,100,VALID,-0.0169808,VALID,17.3742,VALID,100,VALID,0,
2008-07-13, 03:37:00,VALID,914.861,VALID,0,VALID,100,VALID,-0.0169808,VALID,17.4224,VALID,104,VALID,0,
2008-07-13, 03:38:00,VALID,914.851,VALID,0,VALID,100,VALID,-0.0169808,VALID,17.4418,VALID,104,VALID,0,
2008-07-13, 03:39:00,VALID,914.837,VALID,0,VALID,100,VALID,-0.0509425,VALID,17.462,VALID,117,VALID,0,
2008-07-13, 03:40:00,VALID,914.816,VALID,0,VALID,100,VALID,-0.0339617,VALID,17.5069,VALID,134,VALID,0,
2008-07-13, 03:41:00,VALID,914.808,VALID,0,VALID,100,VALID,-0.0169808,VALID,17.5004,VALID,137,VALID,0,
2008-07-13, 03:42:00,VALID,914.789,VALID,0,VALID,100,VALID,0,VALID,17.4967,VALID,122,VALID,0,
2008-07-13, 03:43:00,VALID,914.782,VALID,0,VALID,100,VALID,-0.0339617,VALID,17.5197,VALID,122,VALID,0.1008,
2008-07-13, 03:44:00,VALID,914.757,VALID,0,VALID,100,VALID,0,VALID,17.5491,VALID,131,VALID,0.935156,
2008-07-13, 03:45:00,VALID,914.737,VALID,0,VALID,100,VALID,0,VALID,17.5523,VALID,128,VALID,0.505996,
2008-07-13, 03:46:00,VALID,914.726,VALID,0,VALID,100,VALID,-0.0169808,VALID,17.5588,VALID,118,VALID,0.0154474,
2008-07-13, 03:47:00,VALID,914.709,VALID,0,VALID,100,VALID,-0.0509425,VALID,17.5231,VALID,118,VALID,0.0192308,
2008-07-13, 03:48:00,VALID,914.697,VALID,0,VALID,100,VALID,0.0169808,VALID,17.5035,VALID,127,VALID,0.0530134,